Mount Carmel, IL

1:48 PM CST on November 20, 2017 (GMT -0600)
Mount Carmel Municipal

Weather History for KAJG - June, 2014

Change the Weather History Date:

Wednesday, June 4, 2014

  Actual Average (KLWV) Record (KLWV)
Temperature  
Mean Temperature 79 °F -  
Max Temperature 87 °F 76 °F 100 °F (2011)
Min Temperature 71 °F 58 °F 51 °F (2003)
Cooling Degree Days 14    
Growing Degree Days 29 (Base 50)    
Moisture  
Dew Point 71 °F    
Average Humidity 79    
Maximum Humidity 94    
Minimum Humidity 58    
Precipitation  
Precipitation 0.05 in - - ()
Sea Level Pressure  
Sea Level Pressure 29.81 in    
Wind  
Wind Speed 7 mph (West)    
Max Wind Speed 22 mph    
Max Gust Speed 33 mph    
Visibility 9 miles    
Events Fog , Rain , Thunderstorm    
Averages and records for this station are not official NWS values.
T = Trace of Precipitation, MM = Missing Value Source: NWS Daily Summary

Daily Weather History Graph

Daily Weather History Graph

Search for Another Location

Airport or City:

Trip Planner

Search our weather history database for the weather conditions in past years. The results will help you decide how hot, cold, wet, or windy it might be!

Date:

Astronomy

Jun. 04, 2014 Rise Set
Actual Time 5:27 AM CDT 8:11 PM CDT
Civil Twilight 4:55 AM CDT 8:43 PM CDT
Nautical Twilight 4:16 AM CDT 9:22 PM CDT
Astronomical Twilight 3:32 AM CDT 10:06 PM CDT
Moon 11:43 AM CDT (6/4) 12:13 AM CDT (6/4)
Length of Visible Light 15h 47m
Length of Day
14h 44m
Waxing Crescent, 39% of the Moon is Illuminated
Jun 4
Waxing Crescent
Jun 5
First Quarter
Jun 12
Full
Jun 19
Last Quarter
Jun 27
New

Hourly Weather History & Observations

Time (CDT) Temp. Heat Index Dew Point Humidity Pressure Visibility Wind Dir Wind Speed Gust Speed Precip Events Conditions
12:15 AM 71.6 °F - 69.8 °F 94% 29.92 in 1.2 mi Calm Calm - N/A   Mostly Cloudy
12:35 AM 73.4 °F - 69.8 °F 88% 29.91 in 0.2 mi SE 3.5 mph - N/A Fog Fog
12:55 AM 71.6 °F - 69.8 °F 94% 29.90 in 0.2 mi SE 3.5 mph - N/A Fog Fog
1:15 AM 71.6 °F - 69.8 °F 94% 29.90 in 0.5 mi Calm Calm - N/A Fog Fog
1:35 AM 73.4 °F - 69.8 °F 88% 29.90 in 1.5 mi Calm Calm - N/A   Mostly Cloudy
1:55 AM 73.4 °F - 69.8 °F 88% 29.90 in 0.8 mi Calm Calm - N/A   Overcast
2:15 AM 73.4 °F - 71.6 °F 94% 29.89 in 0.2 mi Calm Calm - N/A Fog Fog
2:35 AM 73.4 °F - 71.6 °F 94% 29.88 in 0.2 mi Calm Calm - N/A Fog Fog
2:55 AM 73.4 °F - 71.6 °F 94% 29.87 in 7.0 mi South 3.5 mph - N/A   Mostly Cloudy
3:15 AM 75.2 °F - 71.6 °F 89% 29.87 in 7.0 mi South 5.8 mph - N/A   Mostly Cloudy
3:35 AM 75.2 °F - 71.6 °F 89% 29.87 in 10.0 mi SSW 8.1 mph - N/A   Mostly Cloudy
3:55 AM 77.0 °F - 71.6 °F 83% 29.87 in 10.0 mi SSW 8.1 mph - N/A   Mostly Cloudy
4:15 AM 75.2 °F - 71.6 °F 89% 29.87 in 10.0 mi SSW 8.1 mph - N/A   Scattered Clouds
4:35 AM 77.0 °F - 71.6 °F 83% 29.87 in 10.0 mi SW 8.1 mph - N/A   Clear
4:55 AM 75.2 °F - 71.6 °F 89% 29.86 in 10.0 mi SSW 10.4 mph - N/A   Clear
5:15 AM 75.2 °F - 71.6 °F 89% 29.84 in 10.0 mi SSW 9.2 mph - N/A   Clear
5:35 AM 75.2 °F - 71.6 °F 89% 29.84 in 10.0 mi SSW 8.1 mph - N/A   Clear
5:55 AM 77.0 °F - 71.6 °F 83% 29.83 in 10.0 mi SSW 8.1 mph - N/A   Clear
6:15 AM 77.0 °F - 71.6 °F 83% 29.84 in 10.0 mi SSW 6.9 mph - N/A   Clear
6:35 AM 77.0 °F - 71.6 °F 83% 29.85 in 10.0 mi SSW 5.8 mph - N/A   Clear
6:55 AM 77.0 °F - 71.6 °F 83% 29.86 in 10.0 mi SSW 8.1 mph - N/A   Clear
7:15 AM 77.0 °F - 71.6 °F 83% 29.85 in 10.0 mi SSW 9.2 mph - N/A   Clear
7:35 AM 77.0 °F - 71.6 °F 83% 29.86 in 10.0 mi SW 11.5 mph - N/A   Clear
7:55 AM 77.0 °F - 71.6 °F 83% 29.85 in 10.0 mi SW 13.8 mph 19.6 mph N/A   Clear
8:15 AM 77.0 °F - 71.6 °F 83% 29.85 in 10.0 mi SW 15.0 mph 20.7 mph N/A   Clear
8:35 AM 77.0 °F - 71.6 °F 83% 29.84 in 10.0 mi SW 18.4 mph 23.0 mph N/A Rain Light Rain
9:00 AM 77.0 °F - 71.6 °F 83% 29.84 in 5.0 mi SW 15.0 mph - N/A Rain Heavy Rain
9:15 AM 77.0 °F - 71.6 °F 83% 29.80 in 5.0 mi SW 18.4 mph 28.8 mph 0.04 in Rain Rain
9:35 AM 73.4 °F - 69.8 °F 88% 29.68 in 10.0 mi SSW 18.4 mph 28.8 mph 0.05 in Rain Light Rain
9:55 AM 73.4 °F - 68.0 °F 83% 29.74 in 10.0 mi WSW 18.4 mph 29.9 mph 0.05 in   Clear
10:15 AM 75.2 °F - 64.4 °F 69% 29.76 in 10.0 mi WSW 12.7 mph 18.4 mph N/A   Clear
10:35 AM 78.8 °F - 69.8 °F 74% 29.75 in 10.0 mi SW 13.8 mph - N/A   Clear
10:55 AM 80.6 °F 84.6 °F 71.6 °F 74% 29.76 in 10.0 mi SW 16.1 mph 27.6 mph N/A   Clear
11:15 AM 80.6 °F 84.6 °F 71.6 °F 74% 29.75 in 10.0 mi SW 20.7 mph 28.8 mph N/A   Clear
11:35 AM 82.4 °F 87.2 °F 71.6 °F 70% 29.75 in 10.0 mi WSW 21.9 mph 33.4 mph N/A   Clear
11:55 AM 82.4 °F 87.2 °F 71.6 °F 70% 29.76 in 10.0 mi WSW 21.9 mph 29.9 mph N/A   Clear
12:15 PM 82.4 °F 87.2 °F 71.6 °F 70% 29.77 in 10.0 mi WSW 18.4 mph 28.8 mph N/A   Clear
12:35 PM 82.4 °F 87.2 °F 71.6 °F 70% 29.77 in 10.0 mi WSW 16.1 mph 27.6 mph N/A   Clear
12:55 PM 84.2 °F 89.6 °F 71.6 °F 66% 29.77 in 10.0 mi WSW 17.3 mph 27.6 mph N/A   Scattered Clouds
1:15 PM 84.2 °F 89.6 °F 71.6 °F 66% 29.77 in 10.0 mi West 19.6 mph 29.9 mph N/A   Mostly Cloudy
1:35 PM 86.0 °F 93.4 °F 73.4 °F 66% 29.77 in 10.0 mi West 15.0 mph 20.7 mph N/A   Mostly Cloudy
1:55 PM 86.0 °F 93.4 °F 73.4 °F 66% 29.77 in 10.0 mi West 16.1 mph 23.0 mph N/A   Scattered Clouds
2:15 PM 87.8 °F 93.8 °F 71.6 °F 58% 29.76 in 10.0 mi West 17.3 mph 24.2 mph N/A   Scattered Clouds
2:35 PM 86.0 °F 91.8 °F 71.6 °F 62% 29.76 in 10.0 mi West 13.8 mph 19.6 mph N/A   Mostly Cloudy
2:55 PM 86.0 °F 91.8 °F 71.6 °F 62% 29.76 in 10.0 mi West 17.3 mph 23.0 mph N/A   Mostly Cloudy
3:15 PM 87.8 °F 95.6 °F 73.4 °F 62% 29.75 in 10.0 mi WNW 12.7 mph 17.3 mph N/A   Mostly Cloudy
3:35 PM 86.0 °F 91.8 °F 71.6 °F 62% 29.74 in 10.0 mi NW 11.5 mph - N/A Thunderstorm Mostly Cloudy
4:15 PM 82.4 °F 85.4 °F 68.0 °F 62% 29.74 in 10.0 mi WNW 10.4 mph - N/A   Overcast
4:35 PM 82.4 °F 85.4 °F 68.0 °F 62% 29.74 in 10.0 mi NW 6.9 mph - N/A   Mostly Cloudy
4:55 PM 82.4 °F 86.3 °F 69.8 °F 66% 29.76 in 10.0 mi West 5.8 mph - N/A   Mostly Cloudy
5:15 PM 80.6 °F 83.9 °F 69.8 °F 70% 29.76 in 10.0 mi WNW 5.8 mph - N/A   Scattered Clouds
5:35 PM 80.6 °F 83.9 °F 69.8 °F 70% 29.76 in 10.0 mi WNW 5.8 mph - N/A   Mostly Cloudy
5:55 PM 80.6 °F 83.9 °F 69.8 °F 70% 29.77 in 10.0 mi North 5.8 mph - N/A Rain Light Rain
6:15 PM 78.8 °F - 71.6 °F 78% 29.75 in 10.0 mi North 6.9 mph - N/A   Mostly Cloudy
6:35 PM 78.8 °F - 71.6 °F 78% 29.75 in 10.0 mi NE 3.5 mph - N/A   Mostly Cloudy
6:55 PM 78.8 °F - 71.6 °F 78% 29.76 in 10.0 mi North 3.5 mph - N/A   Mostly Cloudy
7:15 PM 78.8 °F - 69.8 °F 74% 29.77 in 10.0 mi North 3.5 mph - N/A   Scattered Clouds
7:35 PM 78.8 °F - 71.6 °F 78% 29.78 in 10.0 mi Calm Calm - N/A   Mostly Cloudy
7:55 PM 78.8 °F - 71.6 °F 78% 29.79 in 10.0 mi North 3.5 mph - N/A   Overcast
8:15 PM 77.0 °F - 69.8 °F 78% 29.79 in 10.0 mi NNE 8.1 mph - N/A   Overcast
8:35 PM 77.0 °F - 69.8 °F 78% 29.79 in 10.0 mi North 6.9 mph - N/A   Overcast
8:55 PM 75.2 °F - 68.0 °F 78% 29.79 in 10.0 mi North 5.8 mph - N/A   Mostly Cloudy
9:15 PM 73.4 °F - 69.8 °F 88% 29.79 in 10.0 mi North 4.6 mph - N/A   Mostly Cloudy
9:35 PM 73.4 °F - 68.0 °F 83% 29.79 in 10.0 mi North 3.5 mph - N/A   Mostly Cloudy
9:55 PM 73.4 °F - 68.0 °F 83% 29.78 in 10.0 mi North 5.8 mph - N/A   Mostly Cloudy
10:15 PM 73.4 °F - 68.0 °F 83% 29.79 in 10.0 mi North 5.8 mph - N/A   Scattered Clouds
10:35 PM 71.6 °F - 68.0 °F 88% 29.79 in 10.0 mi North 6.9 mph - N/A   Clear
10:55 PM 71.6 °F - 66.2 °F 83% 29.81 in 10.0 mi North 5.8 mph - N/A   Scattered Clouds
11:15 PM 71.6 °F - 66.2 °F 83% 29.81 in 10.0 mi NNE 8.1 mph - N/A   Mostly Cloudy
11:35 PM 71.6 °F - 66.2 °F 83% 29.82 in 10.0 mi North 6.9 mph - N/A   Mostly Cloudy